Weather History for KGJT - January, 2012

Change the Weather History Date:

Friday, January 13, 2012

  Actual Average Record
Temperature  
Mean Temperature 24 °F 27 °F  
Max Temperature 37 °F 37 °F 53 °F (2000)
Min Temperature 11 °F 16 °F -23 °F (1963)
Degree Days  
Heating Degree Days 41 38  
Month to date heating degree days 444 498  
Since 1 July heating degree days 2682 2857  
Cooling Degree Days 0 0  
Month to date cooling degree days 0 0  
Year to date cooling degree days 0 0  
Moisture  
Dew Point 2 °F    
Average Humidity 42    
Maximum Humidity 61    
Minimum Humidity 23    
Precipitation  
Precipitation 0.00 in 0.02 in 0.50 in (1897)
Month to date precipitation T 0.26  
Year to date precipitation T 0.26  
Snow  
Snow 0.00 in 0.20 in 3.50 in (1918)
Month to date snowfall T 2.4  
Since 1 July snowfall 2.1 9.8  
Snow Depth 0.00 in    
Sea Level Pressure  
Sea Level Pressure 30.45 in    
Wind  
Wind Speed 5 mph (East)    
Max Wind Speed 15 mph    
Max Gust Speed 16 mph    
Visibility 10 miles    
Events      
T = Trace of Precipitation, MM = Missing Value Source: NWS Daily Summary

Daily Weather History Graph

Daily Weather History Graph

Search for Another Location

Airport or City:

Trip Planner

Search our weather history database for the weather conditions in past years. The results will help you decide how hot, cold, wet, or windy it might be!

Date:

Astronomy

Jan. 13, 2012 Rise Set
Actual Time 7:32 AM MST 5:13 PM MST
Civil Twilight 7:03 AM MST 5:42 PM MST
Nautical Twilight 6:30 AM MST 6:15 PM MST
Astronomical Twilight 5:58 AM MST 6:47 PM MST
Moon 10:26 PM MST (1/13) 9:51 AM MST (1/13)
Length of Visible Light 10h 39m
Length of Day
9h 40m
Waning Gibbous, 78% of the Moon is Illuminated
Jan 13
Waning Gibbous
Jan 16
Last Quarter
Jan 23
New
Jan 30
First Quarter
Feb 7
Full

Hourly Weather History & Observations

Time (MST) Temp. Windchill Dew Point Humidity Pressure Visibility Wind Dir Wind Speed Gust Speed Precip Events Conditions
12:53 AM 16.0 °F 6.3 °F 1.9 °F 54% 30.40 in 10.0 mi East 6.9 mph - N/A   Clear
1:53 AM 15.1 °F 4.2 °F 1.9 °F 56% 30.41 in 10.0 mi SE 8.1 mph - N/A   Clear
2:53 AM 14.0 °F 5.1 °F 1.0 °F 56% 30.41 in 10.0 mi ENE 5.8 mph - N/A   Clear
3:53 AM 16.0 °F 3.6 °F 1.0 °F 52% 30.39 in 10.0 mi ESE 10.4 mph - N/A   Clear
4:53 AM 12.9 °F 3.8 °F 1.0 °F 59% 30.41 in 10.0 mi East 5.8 mph - N/A   Clear
5:53 AM 15.1 °F 1.1 °F 1.0 °F 54% 30.45 in 10.0 mi ESE 12.7 mph - N/A   Clear
6:53 AM 12.9 °F 3.8 °F 1.0 °F 59% 30.48 in 10.0 mi ESE 5.8 mph - N/A   Clear
7:53 AM 14.0 °F 6.5 °F 1.0 °F 56% 30.49 in 10.0 mi East 4.6 mph - N/A   Clear
8:53 AM 18.0 °F 12.7 °F 3.0 °F 52% 30.51 in 10.0 mi WNW 3.5 mph - N/A   Clear
9:53 AM 19.9 °F - 3.9 °F 50% 30.51 in 10.0 mi Calm Calm - N/A   Clear
10:53 AM 25.0 °F - 3.9 °F 41% 30.50 in 10.0 mi Calm Calm - N/A   Clear
11:53 AM 28.9 °F - 3.9 °F 35% 30.50 in 10.0 mi Calm Calm - N/A   Clear
12:53 PM 32.0 °F - 3.0 °F 29% 30.45 in 10.0 mi Calm Calm - N/A   Clear
1:53 PM 36.0 °F 33.3 °F 3.0 °F 25% 30.42 in 10.0 mi Variable 3.5 mph - N/A   Clear
2:53 PM 36.0 °F 33.3 °F 1.0 °F 23% 30.42 in 10.0 mi Variable 3.5 mph - N/A   Clear
3:53 PM 36.0 °F 33.3 °F 1.0 °F 23% 30.41 in 10.0 mi NW 3.5 mph - N/A   Clear
4:53 PM 33.1 °F 26.9 °F 3.0 °F 28% 30.45 in 10.0 mi WNW 6.9 mph - N/A   Clear
5:53 PM 24.1 °F 19.7 °F 1.0 °F 37% 30.49 in 10.0 mi NNW 3.5 mph - N/A   Clear
6:53 PM 21.9 °F - 1.9 °F 42% 30.51 in 10.0 mi Calm Calm - N/A   Clear
7:53 PM 21.2 °F 16.4 °F 1.4 °F 42% 30.36 in 10.0 mi ENE 3.5 mph - N/A   Clear
8:53 PM 21.0 °F 13.4 °F 3.0 °F 46% 30.50 in 10.0 mi East 5.8 mph - N/A   Clear
9:53 PM 19.4 °F 12.8 °F 3.2 °F 49% 30.36 in 10.0 mi East 4.6 mph - N/A   Clear
10:53 PM 19.9 °F 13.4 °F 3.0 °F 48% 30.50 in 10.0 mi East 4.6 mph - N/A   Clear
11:53 PM 19.9 °F 7.9 °F 3.9 °F 50% 30.49 in 10.0 mi ESE 11.5 mph - N/A   Clear